QPF
0.21 0.22 0.18 0.18 0.18 0.22 0.25 0.18 0.10 0.09 0.07 0.04 0.02 0.02 0.02 0.01 0.02 0.03 0.03 0.07 0.05 0.04 0.06 0.05 0.05 0.05 0.05 0.06 0.05 0.05 0.05 0.05 0.04 0.05 0.06 0.06 0.05 0.05 0.02 0.01 0.00 0.00 0.01
0.31 0.27 0.26 0.24 0.24 0.27 0.21 0.15 0.09 0.07 0.04 0.03 0.02 0.02 0.02 0.02 0.02 0.04 0.04 0.08 0.08 0.03 0.03 0.04 0.04 0.03 0.04 0.04 0.04 0.03 0.02 0.03 0.02 0.01 0.01 0.01 0.03 0.04 0.04 0.01 0.01 0.00 0.00
0.28 0.25 0.25 0.25 0.27 0.25 0.22 0.16 0.12 0.08 0.06 0.04 0.02 0.01 0.01 0.01 0.01 0.02 0.03 0.03 0.03 0.03 0.02 0.02 0.04 0.03 0.02 0.03 0.04 0.03 0.01 0.01 0.01 0.01 0.00 0.00 0.01 0.02 0.03 0.02 0.01 0.00 0.00
0.15 0.19 0.21 0.21 0.21 0.19 0.17 0.14 0.11 0.09 0.07 0.06 0.04 0.02 0.02 0.02 0.02 0.02 0.01 0.01 0.01 0.01 0.01 0.03 0.05 0.04 0.03 0.03 0.04 0.04 0.02 0.00 0.00 0.00 0.00 0.00 0.00 0.00 0.01 0.01 0.01 0.01 0.00
0.05 0.11 0.12 0.11 0.10 0.11 0.12 0.08 0.11 0.07 0.06 0.06 0.04 0.03 0.02 0.02 0.03 0.03 0.02 0.01 0.01 0.01 0.00 0.03 0.08 0.06 0.04 0.04 0.05 0.05 0.03 0.01 0.00 0.00 0.00 0.00 0.00 0.00 0.00 0.01 0.01 0.01 0.00
0.01 0.01 0.01 0.01 0.01 0.02 0.02 0.03 0.04 0.04 0.02 0.02 0.02 0.01 0.02 0.01 0.02 0.03 0.03 0.01 0.01 0.00 0.00 0.00 0.04 0.04 0.04 0.05 0.04 0.04 0.03 0.02 0.01 0.00 0.00 0.00 0.00 0.00 0.00 0.00 0.00 0.01 0.00
0.00 0.00 0.00 0.00 0.00 0.00 0.00 0.00 0.01 0.01 0.01 0.01 0.01 0.01 0.01 0.00 0.01 0.02 0.02 0.01 0.00 0.00 0.00 0.00 0.02 0.04 0.06 0.07 0.07 0.05 0.03 0.02 0.01 0.00 0.00 0.00 0.00 0.00 0.00 0.00 0.00 0.01 0.01
0.00 0.00 0.00 0.00 0.00 0.00 0.00 0.00 0.00 0.00 0.00 0.00 0.00 0.00 0.00 0.00 0.00 0.00 0.01 0.01 0.01 0.01 0.00 0.01 0.02 0.05 0.11 0.15 0.16 0.06 0.04 0.03 0.02 0.01 0.01 0.00 0.00 0.00 0.00 0.00 0.01 0.01 0.01
0.00 0.00 0.00 0.00 0.00 0.00 0.00 0.01 0.01 0.01 0.01 0.00 0.01 0.01 0.01 0.00 0.00 0.01 0.01 0.02 0.03 0.03 0.01 0.00 0.01 0.02 0.06 0.12 0.18 0.14 0.06 0.03 0.04 0.04 0.03 0.01 0.00 0.00 0.00 0.00 0.01 0.01 0.01
0.00 0.00 0.00 0.00 0.00 0.00 0.01 0.01 0.01 0.02 0.03 0.02 0.02 0.04 0.04 0.05 0.03 0.01 0.01 0.01 0.03 0.03 0.02 0.02 0.01 0.03 0.09 0.14 0.19 0.16 0.09 0.04 0.04 0.04 0.04 0.02 0.01 0.01 0.01 0.02 0.04 0.05 0.05
0.00 0.00 0.00 0.00 0.00 0.00 0.01 0.01 0.01 0.02 0.03 0.03 0.04 0.05 0.07 0.09 0.09 0.07 0.03 0.02 0.05 0.03 0.02 0.01 0.01 0.01 0.04 0.08 0.17 0.14 0.07 0.05 0.04 0.04 0.03 0.03 0.02 0.02 0.03 0.05 0.10 0.14 0.13
0.00 0.00 0.00 0.00 0.00 0.00 0.00 0.00 0.01 0.01 0.03 0.04 0.05 0.05 0.06 0.07 0.10 0.13 0.09 0.08 0.07 0.04 0.04 0.03 0.03 0.03 0.03 0.07 0.10 0.13 0.10 0.07 0.04 0.03 0.02 0.03 0.03 0.03 0.05 0.08 0.12 0.15 0.16
0.00 0.00 0.00 0.00 0.00 0.00 0.00 0.00 0.01 0.01 0.02 0.04 0.05 0.05 0.06 0.05 0.08 0.11 0.10 0.10 0.13 0.12 0.17 0.14 0.08 0.10 0.11 0.20 0.15 0.15 0.10 0.07 0.03 0.01 0.00 0.01 0.01 0.02 0.03 0.05 0.08 0.11 0.14
0.00 0.00 0.00 0.00 0.00 0.00 0.00 0.00 0.00 0.01 0.01 0.03 0.03 0.06 0.07 0.05 0.07 0.07 0.07 0.11 0.14 0.18 0.23 0.20 0.18 0.22 0.26 0.26 0.22 0.13 0.06 0.03 0.01 0.00 0.00 0.00 0.00 0.00 0.01 0.03 0.06 0.10 0.15
0.03 0.02 0.01 0.00 0.00 0.00 0.00 0.00 0.00 0.01 0.01 0.03 0.04 0.07 0.09 0.09 0.09 0.09 0.11 0.15 0.17 0.16 0.22 0.28 0.26 0.26 0.26 0.18 0.14 0.07 0.02 0.01 0.00 0.00 0.00 0.00 0.00 0.00 0.00 0.01 0.02 0.05 0.08
0.08 0.05 0.03 0.02 0.01 0.01 0.00 0.00 0.01 0.02 0.03 0.05 0.07 0.08 0.12 0.13 0.14 0.16 0.18 0.21 0.23 0.20 0.22 0.28 0.25 0.22 0.24 0.12 0.10 0.05 0.01 0.00 0.00 0.00 0.00 0.00 0.00 0.00 0.00 0.00 0.00 0.01 0.02
0.14 0.10 0.08 0.07 0.04 0.02 0.01 0.01 0.02 0.02 0.02 0.04 0.05 0.07 0.12 0.16 0.18 0.19 0.22 0.23 0.24 0.27 0.26 0.25 0.25 0.25 0.25 0.15 0.08 0.04 0.01 0.00 0.00 0.00 0.00 0.00 0.00 0.00 0.00 0.00 0.00 0.00 0.00
0.13 0.13 0.12 0.10 0.06 0.03 0.02 0.01 0.01 0.01 0.02 0.02 0.03 0.05 0.07 0.08 0.13 0.13 0.15 0.19 0.24 0.30 0.32 0.22 0.19 0.19 0.19 0.15 0.09 0.06 0.02 0.01 0.00 0.01 0.00 0.00 0.00 0.00 0.00 0.00 0.00 0.00 0.00
0.10 0.12 0.12 0.10 0.08 0.06 0.04 0.02 0.02 0.01 0.01 0.02 0.02 0.04 0.04 0.06 0.08 0.05 0.07 0.12 0.18 0.31 0.37 0.28 0.19 0.18 0.17 0.14 0.12 0.08 0.04 0.02 0.01 0.00 0.00 0.00 0.00 0.00 0.00 0.00 0.00 0.00 0.00
0.06 0.09 0.11 0.11 0.10 0.08 0.05 0.03 0.02 0.01 0.01 0.01 0.03 0.03 0.04 0.04 0.04 0.02 0.02 0.06 0.11 0.21 0.28 0.28 0.25 0.24 0.21 0.18 0.17 0.13 0.08 0.03 0.01 0.00 0.00 0.00 0.00 0.00 0.00 0.00 0.00 0.00 0.00
0.04 0.07 0.10 0.11 0.11 0.09 0.05 0.04 0.04 0.02 0.01 0.01 0.02 0.03 0.02 0.01 0.01 0.01 0.01 0.04 0.11 0.23 0.37 0.45 0.45 0.45 0.38 0.31 0.26 0.19 0.13 0.06 0.02 0.01 0.01 0.01 0.01 0.01 0.00 0.00 0.00 0.00 0.00
0.03 0.05 0.08 0.11 0.11 0.09 0.07 0.04 0.03 0.02 0.01 0.01 0.02 0.03 0.03 0.01 0.00 0.00 0.01 0.04 0.10 0.21 0.38 0.55 0.63 0.60 0.53 0.46 0.35 0.22 0.13 0.06 0.04 0.04 0.04 0.03 0.02 0.01 0.00 0.00 0.00 0.00 0.00
0.02 0.03 0.06 0.09 0.12 0.13 0.11 0.06 0.04 0.02 0.02 0.01 0.01 0.03 0.03 0.02 0.01 0.00 0.00 0.01 0.04 0.11 0.21 0.34 0.44 0.47 0.48 0.44 0.31 0.19 0.12 0.08 0.05 0.04 0.04 0.03 0.01 0.00 0.00 0.00 0.00 0.00 0.00
0.02 0.02 0.04 0.07 0.11 0.15 0.13 0.09 0.06 0.03 0.02 0.01 0.01 0.01 0.03 0.04 0.03 0.01 0.01 0.01 0.01 0.03 0.08 0.14 0.19 0.22 0.22 0.19 0.16 0.13 0.09 0.05 0.04 0.03 0.02 0.03 0.01 0.00 0.00 0.00 0.00 0.00 0.00
0.02 0.01 0.02 0.04 0.10 0.15 0.16 0.11 0.07 0.04 0.02 0.01 0.01 0.01 0.02 0.03 0.01 0.00 0.01 0.01 0.01 0.01 0.02 0.03 0.04 0.05 0.04 0.03 0.04 0.04 0.02 0.01 0.01 0.01 0.01 0.02 0.02 0.03 0.03 0.01 0.00 0.00 0.00
0.02 0.01 0.01 0.04 0.09 0.16 0.19 0.14 0.11 0.06 0.04 0.03 0.03 0.02 0.01 0.01 0.00 0.00 0.02 0.01 0.00 0.00 0.00 0.01 0.01 0.01 0.01 0.00 0.00 0.01 0.01 0.00 0.00 0.00 0.00 0.01 0.01 0.03 0.04 0.02 0.01 0.00 0.00
MSLP
1010.74 1010.94 1011.04 1011.09 1011.11 1011.16 1011.24 1011.37 1011.53 1011.68 1011.80 1011.84 1011.80 1011.69 1011.52 1011.34 1011.19 1011.12 1011.14 1011.25 1011.46 1011.73 1012.03 1012.34 1012.63 1012.90 1013.14 1013.36 1013.58 1013.81 1014.06 1014.34 1014.67 1015.03 1015.42 1015.83 1016.25 1016.67 1017.06 1017.43 1017.76 1018.05 1018.32
1010.36 1010.57 1010.70 1010.78 1010.82 1010.86 1010.92 1011.02 1011.14 1011.26 1011.35 1011.39 1011.35 1011.24 1011.09 1010.91 1010.75 1010.66 1010.65 1010.73 1010.91 1011.16 1011.46 1011.78 1012.09 1012.37 1012.62 1012.84 1013.05 1013.25 1013.48 1013.73 1014.03 1014.37 1014.76 1015.17 1015.60 1016.02 1016.42 1016.79 1017.12 1017.42 1017.69
1010.05 1010.28 1010.44 1010.54 1010.60 1010.64 1010.68 1010.75 1010.83 1010.92 1010.98 1011.00 1010.96 1010.85 1010.69 1010.50 1010.31 1010.17 1010.11 1010.14 1010.26 1010.48 1010.76 1011.07 1011.39 1011.70 1011.97 1012.22 1012.43 1012.64 1012.86 1013.10 1013.38 1013.71 1014.08 1014.49 1014.91 1015.32 1015.72 1016.08 1016.40 1016.70 1016.98
1009.82 1010.05 1010.23 1010.36 1010.43 1010.48 1010.52 1010.56 1010.60 1010.65 1010.68 1010.67 1010.61 1010.48 1010.30 1010.08 1009.85 1009.65 1009.51 1009.47 1009.52 1009.67 1009.91 1010.21 1010.53 1010.86 1011.16 1011.44 1011.69 1011.92 1012.15 1012.40 1012.69 1013.02 1013.38 1013.78 1014.18 1014.58 1014.96 1015.31 1015.62 1015.92 1016.21
1009.61 1009.86 1010.06 1010.21 1010.31 1010.37 1010.40 1010.42 1010.43 1010.43 1010.42 1010.38 1010.29 1010.13 1009.92 1009.66 1009.38 1009.11 1008.90 1008.76 1008.72 1008.80 1008.97 1009.22 1009.53 1009.86 1010.19 1010.50 1010.79 1011.07 1011.34 1011.62 1011.93 1012.27 1012.64 1013.03 1013.43 1013.81 1014.18 1014.51 1014.81 1015.11 1015.40
1009.42 1009.67 1009.90 1010.08 1010.21 1010.28 1010.31 1010.31 1010.29 1010.25 1010.20 1010.12 1009.99 1009.81 1009.57 1009.28 1008.95 1008.62 1008.33 1008.10 1007.96 1007.93 1008.02 1008.20 1008.46 1008.77 1009.11 1009.45 1009.78 1010.10 1010.42 1010.75 1011.10 1011.47 1011.85 1012.25 1012.65 1013.03 1013.38 1013.70 1013.99 1014.28 1014.58
1009.21 1009.47 1009.73 1009.95 1010.10 1010.20 1010.23 1010.22 1010.17 1010.10 1010.00 1009.89 1009.73 1009.53 1009.28 1008.97 1008.62 1008.24 1007.88 1007.56 1007.32 1007.19 1007.16 1007.25 1007.44 1007.70 1008.02 1008.36 1008.72 1009.09 1009.46 1009.85 1010.24 1010.65 1011.06 1011.48 1011.88 1012.25 1012.59 1012.90 1013.19 1013.47 1013.77
1008.98 1009.26 1009.54 1009.79 1009.99 1010.10 1010.15 1010.13 1010.06 1009.96 1009.83 1009.69 1009.53 1009.33 1009.08 1008.77 1008.42 1008.02 1007.61 1007.23 1006.90 1006.65 1006.51 1006.49 1006.58 1006.76 1007.03 1007.36 1007.72 1008.12 1008.54 1008.98 1009.42 1009.87 1010.32 1010.75 1011.16 1011.53 1011.86 1012.16 1012.43 1012.70 1012.98
1008.74 1009.02 1009.33 1009.61 1009.84 1009.98 1010.04 1010.02 1009.94 1009.82 1009.68 1009.53 1009.38 1009.19 1008.97 1008.70 1008.37 1007.98 1007.56 1007.13 1006.73 1006.38 1006.13 1005.98 1005.96 1006.05 1006.25 1006.53 1006.89 1007.30 1007.75 1008.23 1008.72 1009.21 1009.68 1010.12 1010.53 1010.89 1011.21 1011.49 1011.74 1011.99 1012.25
1008.51 1008.79 1009.11 1009.41 1009.66 1009.83 1009.90 1009.88 1009.79 1009.67 1009.53 1009.39 1009.25 1009.10 1008.93 1008.71 1008.43 1008.09 1007.68 1007.23 1006.78 1006.36 1006.00 1005.75 1005.61 1005.60 1005.73 1005.96 1006.30 1006.71 1007.19 1007.69 1008.21 1008.72 1009.21 1009.65 1010.05 1010.39 1010.68 1010.93 1011.15 1011.37 1011.59
1008.33 1008.58 1008.89 1009.19 1009.44 1009.61 1009.69 1009.67 1009.59 1009.46 1009.33 1009.20 1009.10 1009.00 1008.89 1008.74 1008.53 1008.24 1007.86 1007.43 1006.95 1006.48 1006.06 1005.72 1005.49 1005.41 1005.47 1005.66 1005.98 1006.39 1006.88 1007.40 1007.94 1008.46 1008.95 1009.38 1009.75 1010.06 1010.31 1010.51 1010.69 1010.86 1011.04
1008.19 1008.40 1008.67 1008.95 1009.18 1009.34 1009.41 1009.39 1009.30 1009.18 1009.05 1008.95 1008.87 1008.82 1008.77 1008.69 1008.55 1008.32 1008.00 1007.59 1007.13 1006.64 1006.19 1005.80 1005.53 1005.40 1005.42 1005.60 1005.91 1006.33 1006.84 1007.38 1007.92 1008.45 1008.92 1009.32 1009.65 1009.91 1010.11 1010.26 1010.38 1010.49 1010.62
1008.13 1008.26 1008.47 1008.69 1008.89 1009.01 1009.06 1009.02 1008.92 1008.79 1008.67 1008.58 1008.53 1008.52 1008.51 1008.49 1008.41 1008.24 1007.98 1007.62 1007.18 1006.71 1006.26 1005.88 1005.60 1005.47 1005.51 1005.70 1006.04 1006.49 1007.02 1007.59 1008.15 1008.66 1009.11 1009.48 1009.76 1009.97 1010.10 1010.19 1010.25 1010.31 1010.38
1008.13 1008.17 1008.29 1008.44 1008.56 1008.64 1008.64 1008.57 1008.45 1008.31 1008.19 1008.10 1008.06 1008.07 1008.09 1008.11 1008.07 1007.95 1007.73 1007.42 1007.03 1006.61 1006.20 1005.86 1005.63 1005.56 1005.64 1005.90 1006.29 1006.80 1007.38 1007.98 1008.55 1009.07 1009.50 1009.83 1010.07 1010.21 1010.29 1010.32 1010.33 1010.34 1010.36
1008.17 1008.12 1008.13 1008.18 1008.23 1008.23 1008.18 1008.07 1007.92 1007.77 1007.63 1007.53 1007.49 1007.50 1007.53 1007.56 1007.54 1007.45 1007.27 1007.01 1006.68 1006.32 1005.98 1005.72 1005.58 1005.60 1005.78 1006.12 1006.61 1007.19 1007.84 1008.48 1009.08 1009.60 1010.02 1010.33 1010.53 1010.63 1010.66 1010.65 1010.61 1010.58 1010.57
1008.23 1008.08 1007.99 1007.95 1007.90 1007.83 1007.72 1007.56 1007.38 1007.20 1007.05 1006.94 1006.88 1006.88 1006.90 1006.92 1006.90 1006.82 1006.67 1006.44 1006.17 1005.89 1005.64 1005.48 1005.45 1005.58 1005.88 1006.34 1006.93 1007.61 1008.32 1009.02 1009.66 1010.20 1010.62 1010.91 1011.09 1011.17 1011.18 1011.14 1011.08 1011.03 1011.00
1008.26 1008.02 1007.85 1007.72 1007.59 1007.45 1007.28 1007.08 1006.88 1006.68 1006.51 1006.39 1006.32 1006.29 1006.29 1006.29 1006.26 1006.18 1006.04 1005.85 1005.63 1005.42 1005.27 1005.21 1005.30 1005.55 1005.97 1006.54 1007.23 1008.00 1008.78 1009.53 1010.21 1010.77 1011.20 1011.51 1011.69 1011.78 1011.78 1011.75 1011.70 1011.64 1011.61
1008.20 1007.91 1007.68 1007.48 1007.29 1007.09 1006.88 1006.66 1006.43 1006.23 1006.05 1005.93 1005.85 1005.82 1005.80 1005.78 1005.74 1005.65 1005.52 1005.35 1005.18 1005.04 1004.96 1005.01 1005.20 1005.56 1006.08 1006.74 1007.51 1008.33 1009.17 1009.96 1010.66 1011.25 1011.71 1012.04 1012.25 1012.37 1012.41 1012.40 1012.38 1012.35 1012.33
1008.02 1007.71 1007.45 1007.21 1006.98 1006.75 1006.51 1006.28 1006.06 1005.86 1005.70 1005.59 1005.52 1005.49 1005.47 1005.44 1005.39 1005.31 1005.19 1005.04 1004.91 1004.82 1004.82 1004.94 1005.21 1005.64 1006.23 1006.94 1007.75 1008.61 1009.46 1010.27 1010.99 1011.60 1012.09 1012.46 1012.71 1012.88 1012.98 1013.03 1013.05 1013.06 1013.06
1007.68 1007.39 1007.12 1006.87 1006.63 1006.39 1006.15 1005.92 1005.72 1005.55 1005.43 1005.35 1005.31 1005.30 1005.29 1005.28 1005.24 1005.17 1005.07 1004.96 1004.86 1004.83 1004.88 1005.05 1005.37 1005.83 1006.44 1007.17 1007.98 1008.82 1009.66 1010.45 1011.16 1011.78 1012.29 1012.70 1013.02 1013.26 1013.43 1013.55 1013.64 1013.69 1013.73
1007.18 1006.92 1006.68 1006.44 1006.20 1005.97 1005.76 1005.56 1005.39 1005.26 1005.19 1005.16 1005.17 1005.20 1005.23 1005.25 1005.24 1005.20 1005.14 1005.07 1005.02 1005.02 1005.11 1005.32 1005.65 1006.13 1006.72 1007.42 1008.18 1008.97 1009.75 1010.50 1011.18 1011.79 1012.32 1012.77 1013.15 1013.46 1013.71 1013.92 1014.07 1014.19 1014.27
1006.53 1006.32 1006.12 1005.91 1005.70 1005.49 1005.31 1005.15 1005.02 1004.95 1004.94 1004.97 1005.03 1005.12 1005.21 1005.28 1005.32 1005.33 1005.31 1005.29 1005.29 1005.34 1005.47 1005.70 1006.04 1006.49 1007.04 1007.67 1008.35 1009.06 1009.76 1010.44 1011.07 1011.66 1012.19 1012.67 1013.10 1013.49 1013.82 1014.10 1014.33 1014.51 1014.62
1005.79 1005.63 1005.46 1005.29 1005.11 1004.94 1004.79 1004.68 1004.61 1004.60 1004.64 1004.73 1004.86 1005.01 1005.15 1005.29 1005.39 1005.46 1005.51 1005.55 1005.61 1005.71 1005.88 1006.12 1006.45 1006.87 1007.36 1007.92 1008.51 1009.11 1009.71 1010.30 1010.87 1011.42 1011.94 1012.44 1012.92 1013.36 1013.77 1014.12 1014.41 1014.64 1014.79
1005.01 1004.89 1004.76 1004.62 1004.48 1004.35 1004.25 1004.18 1004.17 1004.21 1004.30 1004.45 1004.63 1004.84 1005.04 1005.23 1005.39 1005.53 1005.65 1005.77 1005.89 1006.05 1006.26 1006.52 1006.85 1007.24 1007.68 1008.15 1008.64 1009.14 1009.65 1010.15 1010.64 1011.14 1011.64 1012.15 1012.65 1013.13 1013.59 1014.00 1014.34 1014.61 1014.79
1004.24 1004.15 1004.05 1003.95 1003.85 1003.77 1003.71 1003.69 1003.72 1003.81 1003.95 1004.14 1004.37 1004.61 1004.86 1005.10 1005.32 1005.52 1005.71 1005.90 1006.09 1006.32 1006.57 1006.87 1007.20 1007.57 1007.96 1008.36 1008.77 1009.18 1009.60 1010.01 1010.44 1010.89 1011.36 1011.86 1012.36 1012.87 1013.36 1013.80 1014.18 1014.47 1014.68
1003.53 1003.46 1003.39 1003.32 1003.27 1003.23 1003.23 1003.26 1003.34 1003.47 1003.64 1003.86 1004.11 1004.38 1004.65 1004.92 1005.19 1005.44 1005.69 1005.95 1006.22 1006.50 1006.81 1007.14 1007.50 1007.86 1008.22 1008.57 1008.92 1009.26 1009.60 1009.94 1010.31 1010.71 1011.15 1011.63 1012.13 1012.64 1013.13 1013.58 1013.97 1014.28 1014.50
Thickness
5771 5769 5767 5765 5762 5760 5757 5755 5754 5754 5754 5754 5754 5753 5751 5751 5752 5752 5753 5753 5752 5751 5752 5753 5753 5753 5753 5753 5754 5754 5752 5750 5748 5746 5744 5741 5738 5736 5735 5734 5733 5731 5728
5766 5762 5761 5759 5758 5756 5754 5752 5752 5751 5751 5750 5749 5749 5748 5748 5748 5749 5751 5750 5749 5749 5749 5751 5752 5752 5753 5753 5753 5754 5754 5752 5750 5749 5746 5744 5741 5739 5737 5736 5735 5734 5732
5762 5759 5757 5755 5755 5753 5751 5749 5749 5748 5747 5746 5745 5744 5744 5745 5746 5748 5750 5750 5750 5749 5748 5749 5750 5751 5752 5752 5752 5753 5753 5753 5751 5749 5748 5746 5744 5742 5740 5739 5737 5736 5735
5758 5755 5752 5751 5751 5749 5748 5746 5745 5743 5742 5741 5741 5742 5744 5745 5745 5747 5749 5750 5750 5750 5749 5749 5749 5749 5750 5750 5751 5751 5752 5752 5751 5750 5749 5747 5746 5744 5743 5741 5740 5738 5737
5755 5751 5748 5748 5747 5747 5745 5744 5744 5741 5739 5738 5738 5740 5742 5743 5745 5747 5748 5749 5750 5750 5750 5750 5748 5747 5747 5747 5748 5749 5750 5751 5750 5749 5748 5747 5746 5745 5744 5743 5741 5740 5739
5750 5747 5745 5745 5745 5743 5742 5742 5740 5739 5737 5735 5736 5738 5740 5742 5744 5745 5746 5748 5749 5750 5749 5748 5746 5745 5745 5745 5746 5747 5748 5749 5749 5749 5747 5746 5746 5745 5744 5743 5742 5741 5740
5746 5743 5740 5739 5739 5738 5738 5737 5735 5733 5732 5733 5730 5730 5735 5740 5742 5744 5746 5747 5748 5750 5749 5747 5745 5745 5744 5743 5744 5745 5747 5747 5748 5747 5746 5745 5744 5744 5743 5742 5742 5741 5740
5741 5740 5737 5734 5734 5733 5732 5731 5729 5726 5725 5727 5723 5719 5720 5726 5733 5742 5745 5745 5747 5748 5748 5747 5745 5744 5745 5745 5744 5744 5745 5745 5745 5745 5744 5743 5742 5742 5741 5740 5739 5739 5739
5737 5735 5732 5730 5728 5727 5727 5727 5726 5723 5720 5721 5721 5715 5711 5713 5721 5731 5738 5742 5744 5745 5746 5746 5746 5746 5745 5744 5743 5742 5742 5741 5741 5741 5739 5739 5738 5738 5738 5737 5737 5737 5736
5733 5731 5728 5726 5724 5724 5723 5723 5726 5722 5718 5715 5716 5715 5713 5711 5706 5710 5720 5729 5735 5738 5741 5742 5742 5743 5743 5740 5738 5736 5736 5737 5737 5736 5735 5734 5734 5734 5735 5734 5734 5734 5734
5730 5728 5725 5723 5721 5720 5720 5720 5719 5718 5716 5713 5711 5710 5708 5708 5706 5701 5703 5711 5719 5728 5734 5738 5738 5739 5740 5739 5735 5733 5733 5733 5732 5731 5730 5729 5729 5730 5731 5731 5731 5731 5732
5728 5727 5723 5720 5717 5716 5717 5716 5715 5714 5713 5711 5709 5707 5704 5701 5700 5698 5697 5699 5702 5713 5724 5731 5733 5734 5735 5736 5733 5730 5729 5728 5726 5725 5723 5723 5723 5724 5725 5727 5727 5728 5729
5721 5723 5721 5716 5713 5712 5712 5711 5711 5711 5711 5709 5707 5705 5704 5701 5700 5697 5694 5694 5696 5704 5713 5722 5728 5728 5730 5729 5726 5722 5718 5718 5717 5716 5715 5715 5715 5715 5717 5719 5720 5722 5723
5715 5716 5715 5711 5709 5707 5707 5707 5706 5707 5709 5707 5706 5704 5702 5700 5699 5696 5693 5691 5689 5694 5701 5709 5718 5719 5720 5720 5716 5712 5708 5709 5708 5707 5706 5705 5706 5706 5707 5708 5709 5711 5713
5704 5707 5707 5706 5704 5703 5702 5701 5701 5702 5704 5704 5703 5702 5700 5699 5698 5696 5694 5691 5685 5684 5690 5701 5706 5710 5711 5710 5707 5704 5700 5699 5698 5697 5696 5696 5696 5696 5696 5697 5697 5699 5701
5690 5693 5696 5696 5696 5696 5697 5696 5696 5699 5699 5700 5700 5699 5698 5697 5696 5694 5692 5690 5688 5685 5686 5695 5700 5703 5703 5701 5698 5695 5691 5689 5688 5687 5686 5685 5685 5684 5684 5685 5686 5687 5689
5674 5679 5682 5685 5686 5688 5690 5691 5692 5694 5695 5696 5696 5695 5693 5694 5692 5690 5689 5687 5686 5685 5683 5688 5692 5694 5693 5690 5686 5684 5682 5680 5677 5676 5675 5674 5673 5673 5673 5674 5675 5676 5677
5657 5662 5668 5673 5676 5680 5683 5685 5687 5690 5690 5690 5690 5689 5688 5689 5688 5686 5684 5683 5683 5685 5683 5681 5682 5683 5681 5680 5677 5674 5672 5669 5666 5664 5664 5663 5663 5663 5663 5664 5665 5665 5666
5637 5645 5651 5658 5664 5670 5674 5678 5681 5684 5685 5685 5685 5684 5683 5683 5682 5681 5679 5679 5680 5683 5683 5679 5675 5674 5671 5669 5666 5663 5660 5657 5655 5652 5652 5652 5653 5653 5654 5654 5654 5655 5656
5617 5625 5633 5641 5649 5657 5664 5669 5673 5677 5679 5680 5680 5679 5679 5678 5677 5676 5674 5674 5676 5679 5678 5674 5668 5664 5661 5659 5657 5653 5648 5647 5646 5645 5642 5641 5642 5643 5643 5644 5644 5645 5645
5599 5606 5614 5622 5631 5640 5650 5658 5662 5668 5671 5672 5673 5673 5673 5671 5670 5669 5669 5669 5670 5671 5669 5665 5659 5655 5652 5648 5646 5645 5642 5639 5638 5637 5634 5633 5634 5634 5633 5633 5634 5635 5636
5582 5589 5596 5604 5613 5623 5633 5640 5648 5656 5661 5664 5665 5665 5664 5663 5662 5662 5662 5662 5664 5664 5662 5657 5652 5647 5642 5640 5639 5638 5636 5633 5629 5630 5631 5629 5630 5628 5626 5625 5626 5627 5628
5565 5571 5579 5588 5596 5605 5614 5624 5633 5643 5649 5654 5657 5657 5659 5656 5655 5655 5654 5654 5655 5655 5656 5652 5646 5641 5636 5634 5633 5631 5631 5630 5630 5629 5628 5624 5624 5621 5620 5618 5619 5621 5621
5553 5557 5563 5571 5580 5590 5599 5609 5617 5627 5636 5643 5647 5650 5650 5647 5649 5649 5648 5646 5645 5645 5645 5645 5642 5637 5634 5632 5631 5630 5629 5628 5629 5628 5626 5619 5618 5616 5615 5613 5614 5615 5616
5547 5549 5553 5558 5565 5573 5581 5592 5600 5610 5620 5630 5637 5641 5642 5641 5641 5642 5641 5638 5635 5634 5635 5635 5634 5632 5631 5630 5630 5629 5627 5624 5621 5621 5624 5620 5616 5613 5611 5610 5610 5610 5610
5541 5544 5548 5551 5554 5559 5564 5573 5581 5592 5605 5618 5626 5630 5632 5633 5633 5634 5633 5632 5628 5626 5626 5625 5625 5626 5627 5627 5627 5626 5625 5623 5620 5618 5622 5621 5616 5613 5609 5609 5608 5607 5606